Time,TemperatureF,DewpointF,PressureIn,WindDirection,WindDirectionDegrees,WindSpeedMPH,WindSpeedGustMPH,Humidity,HourlyPrecipIn,Conditions,Clouds,dailyrainin,SolarRadiationWatts/m^2,SoftwareType,DateUTC
2013-02-06 00:00:00,35.9,33.0,29.74,SSW,196,4.0,7.0,89,0.00,,,0.02,0.00,VWS V14.01,2013-02-06 05:00:00,
2013-02-06 00:01:00,35.8,32.9,29.74,SW,229,0.0,6.0,89,0.00,,,0.02,0.00,VWS V14.01,2013-02-06 05:01:00,
2013-02-06 00:02:00,35.8,32.9,29.74,South,169,3.0,8.0,89,0.00,,,0.00,0.00,VWS V14.01,2013-02-06 05:02:00,
2013-02-06 00:03:00,35.8,32.9,29.74,SSW,199,3.0,6.0,89,0.00,,,0.00,0.00,VWS V14.01,2013-02-06 05:03:00,
2013-02-06 00:04:00,35.8,32.9,29.74,South,174,7.0,10.0,89,0.00,,,0.02,0.00,VWS V14.01,2013-02-06 05:04:00,
2013-02-06 00:05:00,35.8,32.9,29.74,South,181,6.0,7.0,89,0.00,,,0.00,0.00,VWS V14.01,2013-02-06 05:05:00,
2013-02-06 00:06:00,35.8,32.9,29.74,SE,131,4.0,6.0,89,0.00,,,0.00,0.00,VWS V14.01,2013-02-06 05:06:00,
2013-02-06 00:16:00,35.6,32.7,29.74,South,180,4.0,8.0,89,0.00,,,0.00,0.00,VWS V14.01,2013-02-06 05:16:00,
2013-02-06 00:22:00,35.6,32.7,29.73,SSW,202,0.0,3.0,89,0.00,,,0.00,0.00,VWS V14.01,2013-02-06 05:22:00,
2013-02-06 00:27:00,35.6,33.0,29.73,SSE,162,0.0,0.0,90,0.00,,,0.00,0.00,VWS V14.01,2013-02-06 05:27:00,
2013-02-06 00:32:00,35.8,33.2,29.73,SSW,213,4.0,5.0,90,0.00,,,0.00,0.00,VWS V14.01,2013-02-06 05:32:00,
2013-02-06 00:37:00,35.8,33.2,29.73,SSE,158,5.0,6.0,90,0.00,,,0.00,0.00,VWS V14.01,2013-02-06 05:37:00,
2013-02-06 00:42:00,35.9,33.3,29.73,SSE,154,7.0,7.0,90,0.00,,,0.00,0.00,VWS V14.01,2013-02-06 05:42:00,
2013-02-06 00:48:00,36.0,33.1,29.73,South,185,6.0,6.0,89,0.00,,,0.00,0.00,VWS V14.01,2013-02-06 05:48:00,
2013-02-06 00:53:00,36.0,33.1,29.73,SSE,154,5.0,7.0,89,0.00,,,0.00,0.00,VWS V14.01,2013-02-06 05:53:00,
2013-02-06 00:59:00,36.0,33.1,29.73,South,178,0.0,8.0,89,0.00,,,0.00,0.00,VWS V14.01,2013-02-06 05:59:00,
2013-02-06 01:04:00,35.9,33.0,29.73,SSW,200,6.0,7.0,89,0.00,,,0.00,0.00,VWS V14.01,2013-02-06 06:04:00,
2013-02-06 01:10:00,35.9,33.0,29.73,SSE,158,0.0,6.0,89,0.00,,,0.00,0.00,VWS V14.01,2013-02-06 06:10:00,
2013-02-06 01:15:00,35.9,33.0,29.73,South,172,3.0,10.0,89,0.00,,,0.00,0.00,VWS V14.01,2013-02-06 06:15:00,
2013-02-06 01:21:00,35.8,32.9,29.73,South,184,10.0,10.0,89,0.00,,,0.00,0.00,VWS V14.01,2013-02-06 06:21:00,
2013-02-06 01:26:00,35.8,32.9,29.73,SSE,164,2.0,7.0,89,0.00,,,0.00,0.00,VWS V14.01,2013-02-06 06:26:00,
2013-02-06 01:32:00,35.8,32.9,29.73,SSE,168,11.0,11.0,89,0.00,,,0.00,0.00,VWS V14.01,2013-02-06 06:32:00,
2013-02-06 01:38:00,36.0,33.1,29.74,SSW,213,2.0,9.0,89,0.00,,,0.00,0.00,VWS V14.01,2013-02-06 06:38:00,
2013-02-06 01:44:00,36.5,33.3,29.74,South,181,2.0,12.0,88,0.00,,,0.00,0.00,VWS V14.01,2013-02-06 06:44:00,
2013-02-06 01:50:00,37.3,33.2,29.73,South,169,2.0,6.0,85,0.00,,,0.00,0.00,VWS V14.01,2013-02-06 06:50:00,
2013-02-06 01:55:00,37.9,32.9,29.73,SSE,161,7.0,8.0,82,0.00,,,0.00,0.00,VWS V14.01,2013-02-06 06:55:00,
2013-02-06 02:00:00,38.3,32.7,29.73,WSW,254,5.0,8.0,80,0.00,,,0.00,0.00,VWS V14.01,2013-02-06 07:00:00,
2013-02-06 02:06:00,38.9,32.3,29.73,SSW,203,2.0,13.0,77,0.00,,,0.00,0.00,VWS V14.01,2013-02-06 07:06:00,
2013-02-06 02:12:00,39.8,32.2,29.73,SW,236,1.0,7.0,74,0.00,,,0.00,0.00,VWS V14.01,2013-02-06 07:12:00,
2013-02-06 02:18:00,40.5,31.9,29.73,SE,136,2.0,2.0,71,0.00,,,0.00,0.00,VWS V14.01,2013-02-06 07:18:00,
2013-02-06 02:24:00,41.2,31.8,29.73,SW,232,3.0,7.0,69,0.00,,,0.00,0.00,VWS V14.01,2013-02-06 07:24:00,
2013-02-06 02:29:00,41.5,31.7,29.73,West,260,0.0,5.0,68,0.00,,,0.00,0.00,VWS V14.01,2013-02-06 07:29:00,
2013-02-06 02:35:00,41.6,31.8,29.74,SSW,199,3.0,10.0,68,0.00,,,0.00,0.00,VWS V14.01,2013-02-06 07:35:00,
2013-02-06 02:41:00,41.6,31.8,29.74,SW,223,1.0,3.0,68,0.00,,,0.00,0.00,VWS V14.01,2013-02-06 07:41:00,
2013-02-06 02:47:00,41.5,31.7,29.74,SSW,199,4.0,18.0,68,0.00,,,0.00,0.00,VWS V14.01,2013-02-06 07:47:00,
2013-02-06 02:52:00,41.6,31.8,29.74,WSW,253,6.0,17.0,68,0.00,,,0.00,0.00,VWS V14.01,2013-02-06 07:52:00,
2013-02-06 02:57:00,41.8,32.0,29.74,West,275,3.0,16.0,68,0.00,,,0.00,0.00,VWS V14.01,2013-02-06 07:57:00,
2013-02-06 03:03:00,41.8,32.0,29.74,WSW,253,6.0,6.0,68,0.00,,,0.00,0.00,VWS V14.01,2013-02-06 08:03:00,
2013-02-06 03:08:00,41.8,32.0,29.75,West,270,7.0,11.0,68,0.00,,,0.00,0.00,VWS V14.01,2013-02-06 08:08:00,
2013-02-06 03:13:00,41.6,32.2,29.75,WSW,246,4.0,14.0,69,0.00,,,0.00,0.00,VWS V14.01,2013-02-06 08:13:00,
2013-02-06 03:19:00,41.5,32.1,29.75,West,281,13.0,18.0,69,0.00,,,0.00,0.00,VWS V14.01,2013-02-06 08:19:00,
2013-02-06 03:24:00,41.3,31.9,29.75,West,261,13.0,14.0,69,0.00,,,0.00,0.00,VWS V14.01,2013-02-06 08:24:00,
2013-02-06 03:30:00,41.2,31.8,29.75,SSE,147,5.0,6.0,69,0.00,,,0.00,0.00,VWS V14.01,2013-02-06 08:30:00,
2013-02-06 03:35:00,41.1,31.7,29.75,SSW,195,12.0,12.0,69,0.00,,,0.00,0.00,VWS V14.01,2013-02-06 08:35:00,
2013-02-06 03:40:00,41.1,31.4,29.75,West,263,12.0,13.0,68,0.00,,,0.00,0.00,VWS V14.01,2013-02-06 08:40:00,
2013-02-06 03:46:00,41.1,31.4,29.75,WSW,240,2.0,3.0,68,0.00,,,0.00,0.00,VWS V14.01,2013-02-06 08:46:00,
2013-02-06 03:51:00,40.8,31.1,29.76,SSW,196,0.0,5.0,68,0.00,,,0.00,0.00,VWS V14.01,2013-02-06 08:51:00,
2013-02-06 03:57:00,40.6,30.9,29.76,SSE,167,2.0,11.0,68,0.00,,,0.00,0.00,VWS V14.01,2013-02-06 08:57:00,
2013-02-06 04:02:00,40.5,30.8,29.76,South,184,6.0,8.0,68,0.00,,,0.00,0.00,VWS V14.01,2013-02-06 09:02:00,
2013-02-06 04:07:00,40.5,30.8,29.77,South,182,3.0,16.0,68,0.00,,,0.00,0.00,VWS V14.01,2013-02-06 09:07:00,
2013-02-06 04:13:00,40.3,30.6,29.77,SSE,167,7.0,11.0,68,0.00,,,0.00,0.00,VWS V14.01,2013-02-06 09:13:00,
2013-02-06 04:19:00,40.3,29.9,29.77,South,172,6.0,13.0,66,0.00,,,0.00,0.00,VWS V14.01,2013-02-06 09:19:00,
2013-02-06 04:24:00,40.3,29.9,29.78,SE,134,1.0,7.0,66,0.00,,,0.00,0.00,VWS V14.01,2013-02-06 09:24:00,
2013-02-06 04:30:00,40.3,29.9,29.78,SW,229,0.0,6.0,66,0.00,,,0.00,0.00,VWS V14.01,2013-02-06 09:30:00,
2013-02-06 04:35:00,40.2,29.8,29.78,West,261,0.0,11.0,66,0.00,,,0.00,0.00,VWS V14.01,2013-02-06 09:35:00,
2013-02-06 04:41:00,40.2,29.4,29.78,South,185,2.0,10.0,65,0.00,,,0.00,0.00,VWS V14.01,2013-02-06 09:41:00,
2013-02-06 04:46:00,40.1,29.3,29.78,SW,233,2.0,7.0,65,0.00,,,0.00,0.00,VWS V14.01,2013-02-06 09:46:00,
2013-02-06 04:51:00,39.9,29.1,29.79,ESE,110,3.0,10.0,65,0.00,,,0.00,0.00,VWS V14.01,2013-02-06 09:51:00,
2013-02-06 04:56:00,39.9,29.1,29.79,East,90,6.0,7.0,65,0.00,,,0.00,0.00,VWS V14.01,2013-02-06 09:56:00,
2013-02-06 05:01:00,39.8,29.0,29.79,West,278,10.0,18.0,65,0.00,,,0.00,0.00,VWS V14.01,2013-02-06 10:01:00,
2013-02-06 05:06:00,39.8,29.4,29.80,West,264,4.0,10.0,66,0.00,,,0.00,0.00,VWS V14.01,2013-02-06 10:06:00,
2013-02-06 05:11:00,39.6,29.2,29.80,West,265,6.0,11.0,66,0.00,,,0.00,0.00,VWS V14.01,2013-02-06 10:11:00,
2013-02-06 05:17:00,39.5,28.7,29.80,WSW,248,2.0,5.0,65,0.00,,,0.00,0.00,VWS V14.01,2013-02-06 10:17:00,
2013-02-06 05:23:00,39.3,27.8,29.81,SSW,198,2.0,13.0,63,0.00,,,0.00,0.00,VWS V14.01,2013-02-06 10:23:00,
2013-02-06 05:29:00,39.1,28.0,29.81,WNW,301,3.0,11.0,64,0.00,,,0.00,0.00,VWS V14.01,2013-02-06 10:29:00,
2013-02-06 05:34:00,38.9,27.8,29.82,South,174,2.0,6.0,64,0.00,,,0.00,0.00,VWS V14.01,2013-02-06 10:34:00,
2013-02-06 05:40:00,38.8,27.7,29.82,South,174,3.0,7.0,64,0.00,,,0.00,0.00,VWS V14.01,2013-02-06 10:40:00,
2013-02-06 05:45:00,38.6,27.5,29.82,South,179,1.0,8.0,64,0.00,,,0.00,0.00,VWS V14.01,2013-02-06 10:45:00,
2013-02-06 05:51:00,38.5,27.4,29.83,SSW,196,3.0,8.0,64,0.00,,,0.00,0.00,VWS V14.01,2013-02-06 10:51:00,
2013-02-06 05:57:00,38.3,27.6,29.83,SW,219,5.0,11.0,65,0.00,,,0.00,0.00,VWS V14.01,2013-02-06 10:57:00,
2013-02-06 06:02:00,38.2,27.5,29.83,South,188,2.0,8.0,65,0.00,,,0.00,0.00,VWS V14.01,2013-02-06 11:02:00,
2013-02-06 06:07:00,38.0,27.3,29.84,NW,309,1.0,5.0,65,0.00,,,0.00,0.00,VWS V14.01,2013-02-06 11:07:00,
2013-02-06 06:13:00,37.8,27.5,29.84,SW,215,6.0,10.0,66,0.00,,,0.00,0.00,VWS V14.01,2013-02-06 11:13:00,
2013-02-06 06:19:00,37.9,27.6,29.84,WSW,248,5.0,16.0,66,0.00,,,0.00,0.00,VWS V14.01,2013-02-06 11:19:00,
2013-02-06 06:25:00,38.0,28.0,29.85,West,263,9.0,15.0,67,0.00,,,0.00,0.00,VWS V14.01,2013-02-06 11:25:00,
2013-02-06 06:31:00,38.0,28.4,29.85,WSW,241,11.0,13.0,68,0.00,,,0.00,0.00,VWS V14.01,2013-02-06 11:31:00,
2013-02-06 06:36:00,38.0,28.4,29.86,WSW,244,7.0,16.0,68,0.00,,,0.00,0.00,VWS V14.01,2013-02-06 11:36:00,
2013-02-06 06:42:00,37.9,28.6,29.86,WNW,291,24.0,24.0,69,0.00,,,0.00,0.00,VWS V14.01,2013-02-06 11:42:00,
2013-02-06 06:47:00,37.8,28.6,29.86,West,263,10.0,13.0,69,0.00,,,0.00,0.00,VWS V14.01,2013-02-06 11:47:00,
2013-02-06 06:52:00,37.6,28.4,29.86,WNW,298,11.0,16.0,69,0.00,,,0.00,0.00,VWS V14.01,2013-02-06 11:52:00,
2013-02-06 06:57:00,37.5,28.3,29.86,West,281,12.0,16.0,69,0.00,,,0.00,0.00,VWS V14.01,2013-02-06 11:57:00,
2013-02-06 07:03:00,37.2,28.3,29.86,WSW,243,0.0,7.0,70,0.00,,,0.00,0.00,VWS V14.01,2013-02-06 12:03:00,
2013-02-06 07:08:00,37.0,28.1,29.87,SSW,196,6.0,10.0,70,0.00,,,0.00,0.00,VWS V14.01,2013-02-06 12:08:00,
2013-02-06 07:14:00,36.9,28.0,29.87,WNW,282,1.0,10.0,70,0.00,,,0.00,0.00,VWS V14.01,2013-02-06 12:14:00,
2013-02-06 07:20:00,36.8,27.6,29.89,South,184,4.0,5.0,69,0.00,,,0.00,0.00,VWS V14.01,2013-02-06 12:20:00,
2013-02-06 07:25:00,36.8,28.0,29.89,West,261,12.0,13.0,70,0.00,,,0.00,0.00,VWS V14.01,2013-02-06 12:25:00,
2013-02-06 07:30:00,36.8,28.0,29.89,West,263,0.0,6.0,70,0.00,,,0.00,0.00,VWS V14.01,2013-02-06 12:30:00,
2013-02-06 07:35:00,36.6,27.8,29.89,West,281,5.0,10.0,70,0.00,,,0.00,7.00,VWS V14.01,2013-02-06 12:35:00,
2013-02-06 07:41:00,36.6,27.4,29.89,West,264,7.0,7.0,69,0.00,,,0.00,23.00,VWS V14.01,2013-02-06 12:41:00,
2013-02-06 07:46:00,36.6,27.4,29.89,WSW,247,2.0,2.0,69,0.00,,,0.00,33.00,VWS V14.01,2013-02-06 12:46:00,
2013-02-06 07:51:00,36.6,27.4,29.91,West,272,4.0,13.0,69,0.00,,,0.00,49.00,VWS V14.01,2013-02-06 12:51:00,
2013-02-06 07:57:00,36.8,27.2,29.91,West,280,11.0,12.0,68,0.00,,,0.00,42.00,VWS V14.01,2013-02-06 12:57:00,
2013-02-06 08:02:00,36.8,27.2,29.91,West,271,3.0,7.0,68,0.00,,,0.00,40.00,VWS V14.01,2013-02-06 13:02:00,
2013-02-06 08:07:00,36.8,27.2,29.91,NW,313,6.0,10.0,68,0.00,,,0.00,97.00,VWS V14.01,2013-02-06 13:07:00,
2013-02-06 08:13:00,36.9,27.0,29.91,West,271,11.0,12.0,67,0.00,,,0.00,104.00,VWS V14.01,2013-02-06 13:13:00,
2013-02-06 08:18:00,36.9,26.6,29.91,West,278,10.0,17.0,66,0.00,,,0.00,132.00,VWS V14.01,2013-02-06 13:18:00,
2013-02-06 08:23:00,37.0,27.1,29.92,NW,309,12.0,17.0,67,0.00,,,0.00,118.00,VWS V14.01,2013-02-06 13:23:00,
2013-02-06 08:29:00,37.0,26.7,29.92,WSW,256,6.0,11.0,66,0.00,,,0.00,106.00,VWS V14.01,2013-02-06 13:29:00,
2013-02-06 08:34:00,37.0,27.1,29.92,WNW,292,6.0,10.0,67,0.00,,,0.00,125.00,VWS V14.01,2013-02-06 13:34:00,
2013-02-06 08:40:00,37.2,27.3,29.94,West,263,7.0,15.0,67,0.00,,,0.00,123.00,VWS V14.01,2013-02-06 13:40:00,
2013-02-06 08:45:00,37.2,26.9,29.94,West,277,10.0,12.0,66,0.00,,,0.00,104.00,VWS V14.01,2013-02-06 13:45:00,
2013-02-06 08:50:00,37.2,26.9,29.94,North,0,3.0,14.0,66,0.00,,,0.00,167.00,VWS V14.01,2013-02-06 13:50:00,
2013-02-06 08:56:00,37.3,27.0,29.94,NW,318,6.0,12.0,66,0.00,,,0.00,167.00,VWS V14.01,2013-02-06 13:56:00,
2013-02-06 09:02:00,37.5,26.8,29.94,West,267,7.0,10.0,65,0.00,,,0.00,146.00,VWS V14.01,2013-02-06 14:02:00,
2013-02-06 09:07:00,37.6,26.5,29.95,SSW,213,3.0,16.0,64,0.00,,,0.00,206.00,VWS V14.01,2013-02-06 14:07:00,
2013-02-06 09:13:00,37.6,26.9,29.95,West,267,11.0,16.0,65,0.00,,,0.00,171.00,VWS V14.01,2013-02-06 14:13:00,
2013-02-06 09:18:00,37.6,26.9,29.95,SW,219,0.0,0.0,65,0.00,,,0.00,227.00,VWS V14.01,2013-02-06 14:18:00,
2013-02-06 09:23:00,38.0,26.9,29.94,WSW,246,0.0,8.0,64,0.00,,,0.00,215.00,VWS V14.01,2013-02-06 14:23:00,
2013-02-06 09:29:00,38.2,27.1,29.94,West,260,5.0,7.0,64,0.00,,,0.00,148.00,VWS V14.01,2013-02-06 14:29:00,
2013-02-06 09:35:00,38.3,27.2,29.94,West,265,8.0,8.0,64,0.00,,,0.00,143.00,VWS V14.01,2013-02-06 14:35:00,
2013-02-06 09:40:00,38.3,27.2,29.94,West,272,8.0,8.0,64,0.00,,,0.00,174.00,VWS V14.01,2013-02-06 14:40:00,
2013-02-06 09:46:00,38.3,27.2,29.94,WSW,243,0.0,1.0,64,0.00,,,0.00,266.00,VWS V14.01,2013-02-06 14:46:00,
2013-02-06 09:52:00,38.8,27.7,29.95,South,182,2.0,5.0,64,0.00,,,0.00,230.00,VWS V14.01,2013-02-06 14:52:00,
2013-02-06 09:57:00,39.1,28.0,29.95,WSW,251,5.0,5.0,64,0.00,,,0.00,206.00,VWS V14.01,2013-02-06 14:57:00,
2013-02-06 10:03:00,39.5,27.6,29.95,SW,234,5.0,8.0,62,0.00,,,0.00,352.00,VWS V14.01,2013-02-06 15:03:00,
2013-02-06 10:09:00,39.5,27.2,29.96,South,185,1.0,6.0,61,0.00,,,0.00,195.00,VWS V14.01,2013-02-06 15:09:00,
2013-02-06 10:14:00,39.5,26.8,29.96,WNW,282,5.0,7.0,60,0.00,,,0.00,313.00,VWS V14.01,2013-02-06 15:14:00,
2013-02-06 10:19:00,39.5,26.8,29.96,West,265,2.0,7.0,60,0.00,,,0.00,118.00,VWS V14.01,2013-02-06 15:19:00,
2013-02-06 10:25:00,39.2,26.5,29.97,WNW,292,8.0,12.0,60,0.00,,,0.00,238.00,VWS V14.01,2013-02-06 15:25:00,
2013-02-06 10:30:00,39.3,27.0,29.97,WSW,243,0.0,1.0,61,0.00,,,0.00,248.00,VWS V14.01,2013-02-06 15:30:00,
2013-02-06 10:36:00,40.1,27.8,29.97,SW,229,0.0,8.0,61,0.00,,,0.00,341.00,VWS V14.01,2013-02-06 15:36:00,
2013-02-06 10:41:00,40.2,27.8,29.97,SW,223,0.0,8.0,61,0.00,,,0.00,352.00,VWS V14.01,2013-02-06 15:41:00,
2013-02-06 10:47:00,40.8,27.6,29.97,SW,222,2.0,10.0,59,0.00,,,0.00,273.00,VWS V14.01,2013-02-06 15:47:00,
2013-02-06 10:52:00,40.8,26.8,29.97,West,268,9.0,10.0,57,0.00,,,0.00,371.00,VWS V14.01,2013-02-06 15:52:00,
2013-02-06 10:57:00,40.6,27.0,29.97,West,271,9.0,9.0,58,0.00,,,0.00,454.00,VWS V14.01,2013-02-06 15:57:00,
2013-02-06 11:03:00,40.5,26.9,29.97,West,271,5.0,13.0,58,0.00,,,0.00,412.00,VWS V14.01,2013-02-06 16:03:00,
2013-02-06 11:08:00,40.3,26.7,29.99,West,265,13.0,13.0,58,0.00,,,0.00,470.00,VWS V14.01,2013-02-06 16:08:00,
2013-02-06 11:13:00,41.1,27.5,29.99,SW,219,0.0,10.0,58,0.00,,,0.00,473.00,VWS V14.01,2013-02-06 16:13:00,
2013-02-06 11:18:00,41.6,26.6,29.99,WNW,282,16.0,16.0,55,0.00,,,0.00,498.00,VWS V14.01,2013-02-06 16:18:00,
2013-02-06 11:23:00,41.3,26.4,29.98,WNW,287,7.0,8.0,55,0.00,,,0.00,457.00,VWS V14.01,2013-02-06 16:23:00,
2013-02-06 11:28:00,41.3,26.8,29.98,WSW,251,6.0,6.0,56,0.00,,,0.00,482.00,VWS V14.01,2013-02-06 16:28:00,
2013-02-06 11:33:00,41.8,26.8,29.98,SW,215,5.0,6.0,55,0.00,,,0.00,457.00,VWS V14.01,2013-02-06 16:33:00,
2013-02-06 11:38:00,42.3,26.9,29.97,West,263,1.0,6.0,54,0.00,,,0.00,468.00,VWS V14.01,2013-02-06 16:38:00,
2013-02-06 11:43:00,43.2,27.7,29.97,WNW,284,8.0,8.0,54,0.00,,,0.00,398.00,VWS V14.01,2013-02-06 16:43:00,
2013-02-06 11:48:00,43.9,28.8,29.97,SSW,192,0.0,6.0,55,0.00,,,0.00,406.00,VWS V14.01,2013-02-06 16:48:00,
2013-02-06 11:54:00,44.6,28.1,29.97,SSE,162,0.0,3.0,52,0.00,,,0.00,450.00,VWS V14.01,2013-02-06 16:54:00,
2013-02-06 12:00:00,44.5,28.5,29.97,SW,223,1.0,3.0,53,0.00,,,0.00,413.00,VWS V14.01,2013-02-06 17:00:00,
2013-02-06 12:05:00,45.2,28.6,29.97,WSW,254,2.0,3.0,52,0.00,,,0.00,433.00,VWS V14.01,2013-02-06 17:05:00,
2013-02-06 12:11:00,44.5,26.5,29.97,WSW,256,5.0,12.0,49,0.00,,,0.00,421.00,VWS V14.01,2013-02-06 17:11:00,
2013-02-06 12:16:00,44.5,27.0,29.97,WSW,241,6.0,6.0,50,0.00,,,0.00,417.00,VWS V14.01,2013-02-06 17:16:00,
2013-02-06 12:21:00,44.5,27.0,29.96,WNW,294,4.0,7.0,50,0.00,,,0.00,410.00,VWS V14.01,2013-02-06 17:21:00,
2013-02-06 12:27:00,43.8,26.4,29.96,South,181,0.0,6.0,50,0.00,,,0.00,442.00,VWS V14.01,2013-02-06 17:27:00,
2013-02-06 12:33:00,44.8,27.3,29.96,SSW,196,4.0,6.0,50,0.00,,,0.00,406.00,VWS V14.01,2013-02-06 17:33:00,
2013-02-06 12:39:00,45.8,27.2,29.97,WSW,253,3.0,11.0,48,0.00,,,0.00,405.00,VWS V14.01,2013-02-06 17:39:00,
2013-02-06 12:45:00,46.0,27.4,29.97,West,272,0.0,0.0,48,0.00,,,0.00,424.00,VWS V14.01,2013-02-06 17:45:00,
2013-02-06 12:51:00,46.0,26.4,29.95,SSW,196,3.0,7.0,46,0.00,,,0.00,405.00,VWS V14.01,2013-02-06 17:51:00,
2013-02-06 12:56:00,46.5,26.9,29.95,West,261,4.0,7.0,46,0.00,,,0.00,429.00,VWS V14.01,2013-02-06 17:56:00,
2013-02-06 13:02:00,46.5,26.9,29.95,West,265,0.0,1.0,46,0.00,,,0.00,408.00,VWS V14.01,2013-02-06 18:02:00,
2013-02-06 13:08:00,46.2,25.5,29.96,SW,217,5.0,6.0,44,0.00,,,0.00,413.00,VWS V14.01,2013-02-06 18:08:00,
2013-02-06 13:13:00,46.0,25.3,29.96,West,272,0.0,1.0,44,0.00,,,0.00,408.00,VWS V14.01,2013-02-06 18:13:00,
2013-02-06 13:19:00,46.1,26.5,29.96,SW,232,2.0,2.0,46,0.00,,,0.00,413.00,VWS V14.01,2013-02-06 18:19:00,
2013-02-06 13:25:00,46.7,26.5,29.94,South,186,0.0,6.0,45,0.00,,,0.00,405.00,VWS V14.01,2013-02-06 18:25:00,
2013-02-06 13:30:00,46.8,26.0,29.94,SSE,151,2.0,8.0,44,0.00,,,0.00,399.00,VWS V14.01,2013-02-06 18:30:00,
2013-02-06 13:36:00,47.9,25.9,29.93,SW,234,0.0,2.0,42,0.00,,,0.00,406.00,VWS V14.01,2013-02-06 18:36:00,
2013-02-06 13:42:00,48.3,25.7,29.93,West,265,5.0,7.0,41,0.00,,,0.00,415.00,VWS V14.01,2013-02-06 18:42:00,
2013-02-06 13:48:00,47.9,25.9,29.93,SSW,195,0.0,5.0,42,0.00,,,0.00,408.00,VWS V14.01,2013-02-06 18:48:00,
2013-02-06 13:54:00,48.5,26.5,29.94,WSW,246,9.0,10.0,42,0.00,,,0.00,412.00,VWS V14.01,2013-02-06 18:54:00,
2013-02-06 13:59:00,48.3,25.1,29.94,WSW,254,0.0,8.0,40,0.00,,,0.00,456.00,VWS V14.01,2013-02-06 18:59:00,
2013-02-06 14:04:00,48.8,25.6,29.94,NW,312,5.0,6.0,40,0.00,,,0.00,408.00,VWS V14.01,2013-02-06 19:04:00,
2013-02-06 14:09:00,48.3,25.1,29.93,West,263,0.0,7.0,40,0.00,,,0.00,398.00,VWS V14.01,2013-02-06 19:09:00,
2013-02-06 14:14:00,48.3,23.9,29.93,SW,236,3.0,6.0,38,0.00,,,0.00,405.00,VWS V14.01,2013-02-06 19:14:00,
2013-02-06 14:19:00,48.9,25.0,29.92,SSE,158,4.0,7.0,39,0.00,,,0.00,396.00,VWS V14.01,2013-02-06 19:19:00,
2013-02-06 14:25:00,49.1,25.2,29.92,West,260,2.0,7.0,39,0.00,,,0.00,394.00,VWS V14.01,2013-02-06 19:25:00,
2013-02-06 14:31:00,48.3,24.5,29.92,West,268,11.0,11.0,39,0.00,,,0.00,392.00,VWS V14.01,2013-02-06 19:31:00,
2013-02-06 14:37:00,48.5,24.7,29.93,WSW,248,1.0,2.0,39,0.00,,,0.00,394.00,VWS V14.01,2013-02-06 19:37:00,
2013-02-06 14:42:00,48.8,25.0,29.93,West,275,8.0,8.0,39,0.00,,,0.00,385.00,VWS V14.01,2013-02-06 19:42:00,
2013-02-06 14:47:00,48.9,23.8,29.93,WSW,240,1.0,7.0,37,0.00,,,0.00,387.00,VWS V14.01,2013-02-06 19:47:00,
2013-02-06 14:52:00,48.6,24.8,29.93,West,272,10.0,10.0,39,0.00,,,0.00,382.00,VWS V14.01,2013-02-06 19:52:00,
2013-02-06 14:58:00,48.6,25.4,29.93,SSW,198,5.0,5.0,40,0.00,,,0.00,378.00,VWS V14.01,2013-02-06 19:58:00,
2013-02-06 15:04:00,49.2,25.3,29.93,NW,305,0.0,6.0,39,0.00,,,0.00,368.00,VWS V14.01,2013-02-06 20:04:00,
2013-02-06 15:09:00,49.4,25.5,29.92,West,271,0.0,2.0,39,0.00,,,0.00,364.00,VWS V14.01,2013-02-06 20:09:00,
2013-02-06 15:15:00,50.1,26.1,29.92,SE,137,0.0,2.0,39,0.00,,,0.00,362.00,VWS V14.01,2013-02-06 20:15:00,
2013-02-06 15:20:00,50.2,24.3,29.92,WSW,254,3.0,11.0,36,0.00,,,0.00,357.00,VWS V14.01,2013-02-06 20:20:00,
2013-02-06 15:25:00,49.9,24.0,29.92,West,263,0.0,10.0,36,0.00,,,0.00,350.00,VWS V14.01,2013-02-06 20:25:00,
2013-02-06 15:31:00,50.1,24.9,29.92,SW,216,2.0,5.0,37,0.00,,,0.00,345.00,VWS V14.01,2013-02-06 20:31:00,
2013-02-06 15:36:00,50.1,23.5,29.93,SSE,164,5.0,5.0,35,0.00,,,0.00,343.00,VWS V14.01,2013-02-06 20:36:00,
2013-02-06 15:41:00,50.2,24.3,29.93,South,171,1.0,5.0,36,0.00,,,0.00,331.00,VWS V14.01,2013-02-06 20:41:00,
2013-02-06 15:46:00,50.4,23.8,29.93,South,179,6.0,10.0,35,0.00,,,0.00,320.00,VWS V14.01,2013-02-06 20:46:00,
2013-02-06 15:52:00,50.1,24.2,29.93,South,181,3.0,7.0,36,0.00,,,0.00,310.00,VWS V14.01,2013-02-06 20:52:00,
2013-02-06 15:57:00,50.2,23.6,29.93,South,184,2.0,2.0,35,0.00,,,0.00,299.00,VWS V14.01,2013-02-06 20:57:00,
2013-02-06 16:02:00,50.1,23.5,29.93,WSW,241,3.0,6.0,35,0.00,,,0.00,289.00,VWS V14.01,2013-02-06 21:02:00,
2013-02-06 16:07:00,49.8,22.6,29.93,SSW,213,4.0,6.0,34,0.00,,,0.00,280.00,VWS V14.01,2013-02-06 21:07:00,
2013-02-06 16:12:00,49.8,21.9,29.93,West,271,0.0,6.0,33,0.00,,,0.00,260.00,VWS V14.01,2013-02-06 21:12:00,
2013-02-06 16:18:00,49.8,23.3,29.93,SSE,164,6.0,6.0,35,0.00,,,0.00,243.00,VWS V14.01,2013-02-06 21:18:00,
2013-02-06 16:24:00,49.9,22.0,29.93,South,185,5.0,7.0,33,0.00,,,0.00,227.00,VWS V14.01,2013-02-06 21:24:00,
2013-02-06 16:30:00,49.9,22.0,29.93,SSW,203,0.0,4.0,33,0.00,,,0.00,209.00,VWS V14.01,2013-02-06 21:30:00,
2013-02-06 16:36:00,49.9,22.0,29.93,SSW,199,0.0,7.0,33,0.00,,,0.00,192.00,VWS V14.01,2013-02-06 21:36:00,
2013-02-06 16:41:00,50.1,22.1,29.93,SW,234,1.0,7.0,33,0.00,,,0.00,176.00,VWS V14.01,2013-02-06 21:41:00,
2013-02-06 16:47:00,50.1,21.4,29.93,West,267,4.0,4.0,32,0.00,,,0.00,160.00,VWS V14.01,2013-02-06 21:47:00,
2013-02-06 16:52:00,49.8,22.6,29.94,WSW,254,2.0,2.0,34,0.00,,,0.00,143.00,VWS V14.01,2013-02-06 21:52:00,
2013-02-06 16:58:00,49.6,21.7,29.94,WSW,257,0.0,1.0,33,0.00,,,0.00,125.00,VWS V14.01,2013-02-06 21:58:00,
2013-02-06 17:03:00,49.4,22.2,29.94,WNW,282,1.0,4.0,34,0.00,,,0.00,113.00,VWS V14.01,2013-02-06 22:03:00,
2013-02-06 17:08:00,48.9,21.8,29.95,West,281,2.0,6.0,34,0.00,,,0.00,91.00,VWS V14.01,2013-02-06 22:08:00,
2013-02-06 17:14:00,48.5,22.8,29.95,West,261,0.0,1.0,36,0.00,,,0.00,67.00,VWS V14.01,2013-02-06 22:14:00,
2013-02-06 17:19:00,48.2,23.2,29.95,WSW,243,0.0,0.0,37,0.00,,,0.00,49.00,VWS V14.01,2013-02-06 22:19:00,
2013-02-06 17:24:00,48.0,22.3,29.95,West,263,5.0,5.0,36,0.00,,,0.00,39.00,VWS V14.01,2013-02-06 22:24:00,
2013-02-06 17:29:00,47.7,22.7,29.95,WSW,258,2.0,3.0,37,0.00,,,0.00,25.00,VWS V14.01,2013-02-06 22:29:00,
2013-02-06 17:35:00,47.3,21.7,29.96,WSW,254,0.0,5.0,36,0.00,,,0.00,14.00,VWS V14.01,2013-02-06 22:35:00,
2013-02-06 17:40:00,46.8,21.9,29.96,WSW,258,0.0,1.0,37,0.00,,,0.00,7.00,VWS V14.01,2013-02-06 22:40:00,
2013-02-06 17:46:00,46.5,21.6,29.96,West,265,1.0,2.0,37,0.00,,,0.00,5.00,VWS V14.01,2013-02-06 22:46:00,
2013-02-06 17:52:00,46.2,22.0,29.97,WSW,257,0.0,0.0,38,0.00,,,0.00,0.00,VWS V14.01,2013-02-06 22:52:00,
2013-02-06 17:57:00,46.0,22.5,29.97,WSW,257,0.0,0.0,39,0.00,,,0.00,0.00,VWS V14.01,2013-02-06 22:57:00,
2013-02-06 18:02:00,45.7,22.2,29.97,WSW,257,0.0,2.0,39,0.00,,,0.00,0.00,VWS V14.01,2013-02-06 23:02:00,
2013-02-06 18:07:00,45.4,22.5,29.97,West,277,0.0,4.0,40,0.00,,,0.00,0.00,VWS V14.01,2013-02-06 23:07:00,
2013-02-06 18:12:00,45.1,22.2,29.97,West,277,0.0,0.0,40,0.00,,,0.00,0.00,VWS V14.01,2013-02-06 23:12:00,
2013-02-06 18:18:00,44.8,22.5,29.97,West,277,0.0,0.0,41,0.00,,,0.00,0.00,VWS V14.01,2013-02-06 23:18:00,
2013-02-06 18:24:00,44.5,22.3,29.98,West,277,0.0,0.0,41,0.00,,,0.00,0.00,VWS V14.01,2013-02-06 23:24:00,
2013-02-06 18:29:00,44.2,22.6,29.98,West,277,0.0,0.0,42,0.00,,,0.00,0.00,VWS V14.01,2013-02-06 23:29:00,
2013-02-06 18:34:00,43.9,22.3,29.98,West,277,0.0,0.0,42,0.00,,,0.00,0.00,VWS V14.01,2013-02-06 23:34:00,
2013-02-06 18:39:00,43.8,22.8,30.00,West,277,0.0,0.0,43,0.00,,,0.00,0.00,VWS V14.01,2013-02-06 23:39:00,
2013-02-06 18:44:00,43.6,22.6,30.00,West,277,0.0,0.0,43,0.00,,,0.00,0.00,VWS V14.01,2013-02-06 23:44:00,
2013-02-06 18:50:00,43.5,22.5,30.00,West,277,0.0,0.0,43,0.00,,,0.00,0.00,VWS V14.01,2013-02-06 23:50:00,
2013-02-06 18:55:00,43.3,22.3,30.00,West,277,0.0,0.0,43,0.00,,,0.00,0.00,VWS V14.01,2013-02-06 23:55:00,
2013-02-06 19:00:00,43.3,22.3,30.00,West,277,0.0,0.0,43,0.00,,,0.00,0.00,VWS V14.01,2013-02-07 00:00:00,
2013-02-06 19:05:00,43.2,22.2,30.01,West,277,0.0,0.0,43,0.00,,,0.00,0.00,VWS V14.01,2013-02-07 00:05:00,
2013-02-06 19:11:00,43.1,22.1,30.01,West,277,0.0,0.0,43,0.00,,,0.00,0.00,VWS V14.01,2013-02-07 00:11:00,
2013-02-06 19:16:00,42.9,22.0,30.01,West,277,0.0,0.0,43,0.00,,,0.00,0.00,VWS V14.01,2013-02-07 00:16:00,
2013-02-06 19:21:00,42.9,22.0,30.00,West,277,0.0,0.0,43,0.00,,,0.00,0.00,VWS V14.01,2013-02-07 00:21:00,
2013-02-06 19:26:00,42.8,22.4,30.00,West,277,0.0,0.0,44,0.00,,,0.00,0.00,VWS V14.01,2013-02-07 00:26:00,
2013-02-06 19:31:00,42.8,22.4,30.00,West,277,0.0,0.0,44,0.00,,,0.00,0.00,VWS V14.01,2013-02-07 00:31:00,
2013-02-06 19:36:00,42.6,22.8,30.02,West,277,0.0,0.0,45,0.00,,,0.00,0.00,VWS V14.01,2013-02-07 00:36:00,
2013-02-06 19:41:00,42.3,23.0,30.02,West,277,0.0,0.0,46,0.00,,,0.00,0.00,VWS V14.01,2013-02-07 00:41:00,
2013-02-06 19:46:00,41.9,22.6,30.02,West,277,0.0,0.0,46,0.00,,,0.00,0.00,VWS V14.01,2013-02-07 00:46:00,
2013-02-06 19:51:00,41.5,22.8,30.03,West,277,0.0,0.0,47,0.00,,,0.00,0.00,VWS V14.01,2013-02-07 00:51:00,
2013-02-06 19:56:00,41.1,22.9,30.03,West,277,0.0,0.0,48,0.00,,,0.00,0.00,VWS V14.01,2013-02-07 00:56:00,
2013-02-06 20:01:00,40.5,23.3,30.03,West,277,0.0,0.0,50,0.00,,,0.00,0.00,VWS V14.01,2013-02-07 01:01:00,
2013-02-06 20:07:00,39.9,22.8,30.04,West,277,0.0,0.0,50,0.00,,,0.00,0.00,VWS V14.01,2013-02-07 01:07:00,
2013-02-06 20:12:00,39.5,22.9,30.04,West,277,0.0,0.0,51,0.00,,,0.00,0.00,VWS V14.01,2013-02-07 01:12:00,
2013-02-06 20:18:00,39.2,22.6,30.04,West,277,0.0,0.0,51,0.00,,,0.00,0.00,VWS V14.01,2013-02-07 01:18:00,
2013-02-06 20:24:00,38.9,22.8,30.04,West,277,0.0,0.0,52,0.00,,,0.00,0.00,VWS V14.01,2013-02-07 01:24:00,
2013-02-06 20:30:00,38.5,22.9,30.04,West,277,0.0,1.0,53,0.00,,,0.00,0.00,VWS V14.01,2013-02-07 01:30:00,
2013-02-06 20:35:00,38.5,22.9,30.03,ENE,78,2.0,2.0,53,0.00,,,0.00,0.00,VWS V14.01,2013-02-07 01:35:00,
2013-02-06 20:40:00,38.6,22.5,30.03,NE,41,3.0,3.0,52,0.00,,,0.00,0.00,VWS V14.01,2013-02-07 01:40:00,
2013-02-06 20:45:00,38.9,22.3,30.03,NE,41,2.0,2.0,51,0.00,,,0.00,0.00,VWS V14.01,2013-02-07 01:45:00,
2013-02-06 20:51:00,39.2,22.1,30.02,NNE,31,0.0,0.0,50,0.00,,,0.00,0.00,VWS V14.01,2013-02-07 01:51:00,
2013-02-06 20:57:00,39.3,22.7,30.02,NNE,31,0.0,0.0,51,0.00,,,0.00,0.00,VWS V14.01,2013-02-07 01:57:00,
2013-02-06 21:02:00,39.2,22.6,30.02,NNE,31,0.0,0.0,51,0.00,,,0.00,0.00,VWS V14.01,2013-02-07 02:02:00,
2013-02-06 21:08:00,38.8,23.1,30.02,NNE,31,0.0,0.0,53,0.00,,,0.00,0.00,VWS V14.01,2013-02-07 02:08:00,
2013-02-06 21:14:00,38.5,22.9,30.02,NNE,31,0.0,0.0,53,0.00,,,0.00,0.00,VWS V14.01,2013-02-07 02:14:00,
2013-02-06 21:19:00,38.0,23.3,30.02,NNE,31,0.0,0.0,55,0.00,,,0.00,0.00,VWS V14.01,2013-02-07 02:19:00,
2013-02-06 21:24:00,37.6,22.9,30.02,NNE,23,2.0,2.0,55,0.00,,,0.00,0.00,VWS V14.01,2013-02-07 02:24:00,
2013-02-06 21:29:00,37.2,22.5,30.02,NNE,23,0.0,0.0,55,0.00,,,0.00,0.00,VWS V14.01,2013-02-07 02:29:00,
2013-02-06 21:35:00,36.9,23.1,30.02,NNW,335,0.0,0.0,57,0.00,,,0.00,0.00,VWS V14.01,2013-02-07 02:35:00,
2013-02-06 21:40:00,36.5,22.7,30.02,NNE,25,0.0,0.0,57,0.00,,,0.00,0.00,VWS V14.01,2013-02-07 02:40:00,
2013-02-06 21:45:00,36.3,22.5,30.02,NE,38,2.0,2.0,57,0.00,,,0.00,0.00,VWS V14.01,2013-02-07 02:45:00,
2013-02-06 21:51:00,36.5,22.3,30.02,NE,40,0.0,2.0,56,0.00,,,0.00,0.00,VWS V14.01,2013-02-07 02:51:00,
2013-02-06 21:57:00,37.0,22.4,30.02,NE,34,0.0,1.0,55,0.00,,,0.00,0.00,VWS V14.01,2013-02-07 02:57:00,
2013-02-06 22:02:00,37.2,22.5,30.02,NE,34,0.0,1.0,55,0.00,,,0.00,0.00,VWS V14.01,2013-02-07 03:02:00,
2013-02-06 22:08:00,37.3,22.2,30.02,NNE,30,1.0,2.0,54,0.00,,,0.00,0.00,VWS V14.01,2013-02-07 03:08:00,
2013-02-06 22:13:00,37.3,22.2,30.02,NE,44,0.0,0.0,54,0.00,,,0.00,0.00,VWS V14.01,2013-02-07 03:13:00,
2013-02-06 22:19:00,37.3,22.6,30.02,NE,44,0.0,0.0,55,0.00,,,0.00,0.00,VWS V14.01,2013-02-07 03:19:00,
2013-02-06 22:25:00,36.8,23.0,30.02,NNW,332,3.0,3.0,57,0.00,,,0.00,0.00,VWS V14.01,2013-02-07 03:25:00,
2013-02-06 22:30:00,36.2,22.9,30.02,NNW,332,0.0,0.0,58,0.00,,,0.00,0.00,VWS V14.01,2013-02-07 03:30:00,
2013-02-06 22:35:00,35.6,22.7,30.02,NNW,332,0.0,0.0,59,0.00,,,0.00,0.00,VWS V14.01,2013-02-07 03:35:00,
2013-02-06 22:41:00,35.2,22.3,30.02,NNW,333,0.0,0.0,59,0.00,,,0.00,0.00,VWS V14.01,2013-02-07 03:41:00,
2013-02-06 22:47:00,34.9,22.4,30.02,NNW,332,0.0,0.0,60,0.00,,,0.00,0.00,VWS V14.01,2013-02-07 03:47:00,
2013-02-06 22:53:00,34.9,22.4,30.04,NNW,333,0.0,0.0,60,0.00,,,0.00,0.00,VWS V14.01,2013-02-07 03:53:00,
2013-02-06 22:58:00,34.9,22.4,30.04,NNW,333,0.0,0.0,60,0.00,,,0.00,0.00,VWS V14.01,2013-02-07 03:58:00,
2013-02-06 23:03:00,35.0,22.1,30.04,NNW,332,0.0,0.0,59,0.00,,,0.00,0.00,VWS V14.01,2013-02-07 04:03:00,
2013-02-06 23:08:00,35.3,22.4,30.06,NNW,332,0.0,0.0,59,0.00,,,0.00,0.00,VWS V14.01,2013-02-07 04:08:00,
2013-02-06 23:14:00,35.3,22.4,30.06,NNW,332,0.0,0.0,59,0.00,,,0.00,0.00,VWS V14.01,2013-02-07 04:14:00,
2013-02-06 23:20:00,35.2,22.7,30.06,NNW,333,0.0,0.0,60,0.00,,,0.00,0.00,VWS V14.01,2013-02-07 04:20:00,
2013-02-06 23:26:00,35.0,22.5,30.06,NNW,332,0.0,0.0,60,0.00,,,0.00,0.00,VWS V14.01,2013-02-07 04:26:00,
2013-02-06 23:32:00,34.9,22.8,30.06,NNW,333,0.0,0.0,61,0.00,,,0.00,0.00,VWS V14.01,2013-02-07 04:32:00,
2013-02-06 23:37:00,34.7,22.6,30.07,NNW,333,0.0,0.0,61,0.00,,,0.00,0.00,VWS V14.01,2013-02-07 04:37:00,
2013-02-06 23:42:00,34.6,22.5,30.07,NNW,332,0.0,0.0,61,0.00,,,0.00,0.00,VWS V14.01,2013-02-07 04:42:00,
2013-02-06 23:47:00,34.4,22.4,30.07,NNW,330,0.0,0.0,61,0.00,,,0.00,0.00,VWS V14.01,2013-02-07 04:47:00,
2013-02-06 23:53:00,34.6,22.2,30.07,NNW,332,0.0,0.0,60,0.00,,,0.00,0.00,VWS V14.01,2013-02-07 04:53:00,
2013-02-06 23:58:00,34.7,22.2,30.07,NNW,333,0.0,0.0,60,0.00,,,0.00,0.00,VWS V14.01,2013-02-07 04:58:00,